Terminal Aerodrome Forecast
Issued by NWS

Home | Current Version | Previous Version | Text Only | Print | Product List | Glossary On
Versions: 1 2 3 4 5 6 7 8 9 10 11 12 13 14 15 16 17 18 19 20 21 22 23 24 25 26 27 28 29
000
FTUS41 KBUF 312336
TAFJHW
TAF
KJHW 312336Z 0100/0124 28005KT P6SM SKC
     FM010800 VRB03KT 1/4SM FG SKC
     FM011200 VRB03KT 2SM BR SKC
     FM011300 VRB03KT P6SM SKC
     FM011800 29005KT P6SM FEW250
      AMD LTD TO CLD VIS AND WIND=

USA.gov is the U.S. government's official web portal to all federal, state and local government web resources and services.